Wright-Patt AFB, OH

6:34 AM EDT on March 28, 2017 (GMT -0400)
Wright-Patterson Air Force Base

Weather History for KFFO - July, 2014

Change the Weather History Date:

Saturday, July 5, 2014

  Actual Average Record
Temperature  
Mean Temperature 66 °F -  
Max Temperature 79 °F 81 °F 98 °F (2012)
Min Temperature 53 °F 60 °F 51 °F (1996)
Growing Degree Days 16 (Base 50)    
Moisture  
Dew Point 51 °F    
Average Humidity 65    
Maximum Humidity 88    
Minimum Humidity 35    
Precipitation  
Precipitation 0.00 in - - ()
Sea Level Pressure  
Sea Level Pressure 30.27 in    
Wind  
Wind Speed 2 mph (SE)    
Max Wind Speed 8 mph    
Max Gust Speed -    
Visibility 9 miles    
Events      
Averages and records for this station are not official NWS values.
T = Trace of Precipitation, MM = Missing Value Source: NWS Daily Summary

Daily Weather History Graph

Daily Weather History Graph

Search for Another Location

Airport or City:

Trip Planner

Search our weather history database for the weather conditions in past years. The results will help you decide how hot, cold, wet, or windy it might be!

Date:

Astronomy

Jul. 05, 2014 Rise Set
Actual Time 6:13 AM EDT 9:07 PM EDT
Civil Twilight 5:41 AM EDT 9:39 PM EDT
Nautical Twilight 5:00 AM EDT 10:20 PM EDT
Astronomical Twilight 4:13 AM EDT 11:07 PM EDT
Moon 2:06 PM EDT (7/5) 1:00 AM EDT (7/5)
Length of Visible Light 15h 58m
Length of Day
14h 53m
First Quarter, 52% of the Moon is Illuminated
Jul 5
First Quarter
Jul 12
Full
Jul 18
Last Quarter
Jul 26
New
Aug 3
First Quarter

Hourly Weather History & Observations

Time (EDT) Temp. Dew Point Humidity Pressure Visibility Wind Dir Wind Speed Gust Speed Precip Events Conditions
12:58 AM 57.9 °F 53.4 °F 85% 30.30 in 8.0 mi Calm Calm - N/A   Clear
1:28 AM 59.0 °F 55.4 °F 88% 30.30 in 10.0 mi Calm Calm - N/A   Clear
1:48 AM 59.0 °F 55.4 °F 88% 30.30 in 7.0 mi Calm Calm - N/A   Clear
1:58 AM 59.0 °F 55.4 °F 88% 30.31 in 6.0 mi Calm Calm - N/A   Haze
2:38 AM 59.0 °F 51.8 °F 77% 30.31 in 9.0 mi SSE 1.2 mph - N/A   Clear
2:48 AM 59.0 °F 51.8 °F 77% 30.31 in 4.0 mi Calm Calm - N/A   Haze
2:58 AM 57.4 °F 51.3 °F 80% 30.30 in 10.0 mi Calm Calm - N/A   Clear
3:28 AM 55.4 °F 50.0 °F 82% 30.30 in 9.0 mi Calm Calm - N/A   Clear
3:58 AM 55.8 °F 51.1 °F 84% 30.30 in 8.0 mi Calm Calm - N/A   Clear
4:08 AM 55.4 °F 51.8 °F 88% 30.30 in 4.0 mi Calm Calm - N/A   Haze
4:18 AM 55.4 °F 50.0 °F 82% 30.30 in 8.0 mi Calm Calm - N/A   Clear
4:38 AM 53.6 °F 50.0 °F 88% 30.30 in 9.0 mi Calm Calm - N/A   Clear
4:58 AM 54.5 °F 50.9 °F 88% 30.30 in 9.0 mi Calm Calm - N/A   Clear
5:08 AM 53.6 °F 50.0 °F 88% 30.30 in 7.0 mi Calm Calm - N/A   Clear
5:38 AM 53.6 °F 50.0 °F 88% 30.31 in 6.0 mi Calm Calm - N/A   Clear
5:58 AM 53.8 °F 50.4 °F 88% 30.31 in 6.0 mi Calm Calm - N/A   Clear
6:58 AM 54.5 °F 50.5 °F 86% 30.33 in 7.0 mi Calm Calm - N/A   Partly Cloudy
7:58 AM 59.0 °F 52.7 °F 80% 30.34 in 10.0 mi Calm Calm - N/A   Clear
8:58 AM 65.1 °F 50.9 °F 60% 30.33 in 10.0 mi SE 6.9 mph - N/A   Clear
9:58 AM 69.8 °F 50.0 °F 49% 30.33 in 10.0 mi SE 6.9 mph - N/A   Partly Cloudy
10:58 AM 72.0 °F 47.5 °F 42% 30.33 in 10.0 mi South 3.5 mph - N/A   Clear
11:58 AM 73.4 °F 48.6 °F 41% 30.32 in 10.0 mi Variable 5.8 mph - N/A   Partly Cloudy
12:58 PM 75.0 °F 48.6 °F 39% 30.31 in 10.0 mi NE 4.6 mph - N/A   Scattered Clouds
1:58 PM 75.9 °F 47.8 °F 37% 30.27 in 10.0 mi SSE 5.8 mph - N/A   Mostly Cloudy
2:00 PM 77.0 °F 48.2 °F 36% 30.27 in 10.0 mi Variable 6.9 mph - N/A   Mostly Cloudy
2:58 PM 77.4 °F 48.2 °F 36% 30.25 in 10.0 mi SSE 5.8 mph - N/A   Partly Cloudy
3:58 PM 78.4 °F 48.6 °F 35% 30.24 in 10.0 mi Variable 2.3 mph - N/A   Clear
4:58 PM 77.9 °F 49.1 °F 36% 30.22 in 10.0 mi SE 4.6 mph - N/A   Clear
5:58 PM 78.8 °F 49.8 °F 36% 30.20 in 10.0 mi ESE 8.1 mph - N/A   Clear
6:58 PM 77.4 °F 50.0 °F 38% 30.18 in 10.0 mi SE 6.9 mph - N/A   Clear
7:58 PM 75.6 °F 49.6 °F 40% 30.17 in 10.0 mi SE 8.1 mph - N/A   Clear
8:58 PM 72.1 °F 51.1 °F 47% 30.16 in 10.0 mi SE 6.9 mph - N/A   Clear
9:58 PM 69.1 °F 50.7 °F 52% 30.16 in 10.0 mi ESE 4.6 mph - N/A   Clear
10:58 PM 64.4 °F 53.1 °F 67% 30.15 in 10.0 mi Variable 1.2 mph - N/A   Clear
11:58 PM 65.3 °F 51.4 °F 61% 30.14 in 10.0 mi Calm Calm - N/A   Clear